Regional Weather Roundup
Issued by NWS

Home | Current Version | Previous Version | Text Only | Print | Product List | Glossary On
Versions: 1 2 3 4 5 6 7 8 9 10 11 12 13 14 15 16 17 18 19 20 21 22 23 24 25 26 27 28 29 30 31 32 33 34 35 36 37 38 39 40 41 42 43 44 45 46 47 48 49 50
000
ASUS44 KMEG 011510
RWRTN
TENNESSEE HOURLY STATE WEATHER ROUNDUP
NATIONAL WEATHER SERVICE MEMPHIS TN
1000 AM CDT TUE SEP 01 2015

TNZ002-004-019-021-049-052-054-088>092-011600-
WEST TENNESSEE

CITY           SKY/WX    TMP DP  RH WIND       PRES   REMARKS
MEMPHIS INTL   PTSUNNY   83  69  62 SE8       30.11S
NWS MEMPHIS      N/A     82 N/A N/A MISG        N/A
JACKSON        SUNNY     80  70  71 SE5       30.14S
DYERSBURG      SUNNY     81  72  74 SE3       30.14S
UNION CITY     SUNNY     82  72  69 CALM      30.12S
PARIS          SUNNY     81  70  69 S3        30.15S
LEXINGTON      SUNNY     79  70  73 CALM      30.14F
$$

TNZ008-025-027-028-033-062-065-066-011600-
NORTH MIDDLE TENNESSEE

CITY           SKY/WX    TMP DP  RH WIND       PRES   REMARKS
NASHVILLE      PTSUNNY   83  67  58 VRB3      30.17R
CLARKSVILLE    SUNNY     80  68  66 CALM      30.15S
SMYRNA         SUNNY     82  70  67 VRB3      30.17S
COOKEVILLE     SUNNY     81  70  69 CALM      30.17S
CROSSVILLE     SUNNY     79  65  62 CALM      30.22R
$$

TNZ061-075-076-078-094-096-097-011600-
SOUTH MIDDLE TENNESSEE

CITY           SKY/WX    TMP DP  RH WIND       PRES   REMARKS
FAYETTEVILLE   SUNNY     79  70  73 NE5       30.17S
TULLAHOMA      SUNNY     79  66  65 CALM      30.19S
WINCHESTER     SUNNY     81  68  65 CALM      30.18R
MCMINNVILLE    SUNNY     79  73  83 VRB5      30.18S
COLUMBIA       SUNNY     82  73  74 CALM      30.15S
SHELBYVILLE    SUNNY     82  72  69 CALM      30.18S
$$

TNZ017-018-042-046-047-011600-
NORTHEAST TENNESSEE

CITY           SKY/WX    TMP DP  RH WIND       PRES   REMARKS
TRI CITIES     SUNNY     77  65  66 CALM      30.21R
ELIZABETHTON   SUNNY     79  64  61 CALM      30.21S
$$

TNZ012-013-036-069-073-074-011600-
CENTRAL EAST TENNESSEE

CITY           SKY/WX    TMP DP  RH WIND       PRES   REMARKS
KNOXVILLE      MOSUNNY   81  75  82 NE5       30.17S
OAK RIDGE      SUNNY     80  67  64 CALM      30.19R
GATLINBURG     SUNNY     81  64  57 CALM      30.16F
MORRISTOWN     SUNNY     79  66  65 VRB3      30.20S
$$

TNZ083-085-099-011600-
SOUTHEAST TENNESSEE

CITY           SKY/WX    TMP DP  RH WIND       PRES   REMARKS
CHATTANOOGA    MOSUNNY   80  68  66 N5        30.16F
$$

SKY/WX REPORTED AS FAIR MEANS FEW OR NO CLOUDS BELOW
12 THOUSAND FEET.



USA.gov is the U.S. government's official web portal to all federal, state and local government web resources and services.